Eau Claire, WI

11:04 AM CDT on October 23, 2017 (GMT -0500)
Chippewa Valley Regional

Weather History for KEAU - March, 2014

Change the Weather History Date:

Monday, March 17, 2014

  Actual Average Record
Temperature  
Mean Temperature 25 °F 32 °F  
Max Temperature 30 °F 41 °F 82 °F (2012)
Min Temperature 20 °F 22 °F -15 °F (1923)
Degree Days  
Heating Degree Days 40 33  
Month to date heating degree days 773 626  
Since 1 July heating degree days 7665 6646  
Cooling Degree Days 0 0  
Month to date cooling degree days 0 0  
Year to date cooling degree days 0 0  
Moisture  
Dew Point 15 °F    
Average Humidity 66    
Maximum Humidity 84    
Minimum Humidity 47    
Precipitation  
Precipitation 0.12 in 0.06 in 0.45 in (1942)
Month to date precipitation 0.14 0.78  
Year to date precipitation 3.34 2.48  
Snow  
Snow 1.00 in 0.30 in 7.60 in (1989)
Month to date snowfall 1.5 5.3  
Since 1 July snowfall 63.2 41.6  
Snow Depth 12.00 in    
Sea Level Pressure  
Sea Level Pressure 29.78 in    
Wind  
Wind Speed 11 mph (SSE)    
Max Wind Speed 20 mph    
Max Gust Speed 25 mph    
Visibility 7 miles    
Events Fog , Snow    
T = Trace of Precipitation, MM = Missing Value Source: NWS Daily Summary

Daily Weather History Graph

Daily Weather History Graph

Search for Another Location

Airport or City:

Trip Planner

Search our weather history database for the weather conditions in past years. The results will help you decide how hot, cold, wet, or windy it might be!

Date:

Astronomy

Mar. 17, 2014 Rise Set
Actual Time 7:14 AM CDT 7:14 PM CDT
Civil Twilight 6:45 AM CDT 7:43 PM CDT
Nautical Twilight 6:11 AM CDT 8:18 PM CDT
Astronomical Twilight 5:36 AM CDT 8:52 PM CDT
Moon 8:36 PM CDT (3/17) 7:27 AM CDT (3/17)
Length of Visible Light 12h 58m
Length of Day
12h 00m
Full, 99% of the Moon is Illuminated
Mar 17
Full
Mar 23
Last Quarter
Mar 30
New
Apr 7
First Quarter
Apr 15
Full

Hourly Weather History & Observations

Time (CDT) Temp. Windchill Dew Point Humidity Pressure Visibility Wind Dir Wind Speed Gust Speed Precip Events Conditions
12:56 AM 21.0 °F 11.4 °F 5.0 °F 50% 30.09 in 10.0 mi South 8.1 mph - N/A   Mostly Cloudy
2:56 AM 21.0 °F 9.3 °F 8.1 °F 57% 30.02 in 10.0 mi South 11.5 mph - N/A   Overcast
3:56 AM 19.9 °F 7.3 °F 9.0 °F 62% 29.97 in 10.0 mi South 12.7 mph - N/A   Overcast
4:56 AM 19.9 °F 7.9 °F 10.9 °F 68% 29.94 in 10.0 mi South 11.5 mph - N/A   Overcast
5:56 AM 19.9 °F 6.7 °F 10.9 °F 68% 29.91 in 10.0 mi SSE 13.8 mph - N/A   Overcast
6:56 AM 19.9 °F 6.2 °F 10.9 °F 68% 29.89 in 10.0 mi South 15.0 mph - N/A   Overcast
7:53 AM 19.4 °F 5.5 °F 12.2 °F 74% 29.81 in 5.0 mi SSE 15.0 mph - 0.00 in Snow Light Snow
7:56 AM 19.9 °F 6.2 °F 12.0 °F 71% 29.86 in 6.0 mi South 15.0 mph - 0.00 in Snow Light Snow
8:24 AM 19.9 °F 5.7 °F 12.0 °F 71% 29.81 in 4.0 mi South 16.1 mph - 0.00 in Snow Light Snow
8:56 AM 21.0 °F 7.6 °F 10.9 °F 65% 29.85 in 10.0 mi SSE 15.0 mph - 0.00 in   Overcast
9:56 AM 21.0 °F 7.1 °F 10.9 °F 65% 29.81 in 10.0 mi South 16.1 mph 23.0 mph N/A   Overcast
10:56 AM 23.0 °F 9.6 °F 12.0 °F 63% 29.78 in 10.0 mi South 16.1 mph - N/A   Overcast
11:18 AM 21.9 °F 6.9 °F 12.9 °F 68% 29.74 in 1.8 mi South 19.6 mph - 0.00 in Snow Light Snow
11:24 AM 21.0 °F 7.6 °F 15.1 °F 78% 29.74 in 0.8 mi South 15.0 mph - 0.00 in Snow Light Snow
11:32 AM 21.0 °F 8.1 °F 16.0 °F 81% 29.74 in 0.5 mi South 13.8 mph - 0.00 in Snow Snow
11:56 AM 21.0 °F 10.6 °F 17.1 °F 85% 29.78 in 0.5 mi SSE 9.2 mph - 0.01 in Fog , Snow Snow
12:44 PM 21.0 °F 10.6 °F 18.0 °F 88% 29.72 in 0.8 mi SE 9.2 mph - 0.03 in Snow Light Snow
12:56 PM 21.0 °F 9.3 °F 17.1 °F 85% 29.76 in 0.8 mi SE 11.5 mph - 0.04 in Snow Light Snow
1:32 PM 21.9 °F 10.4 °F 18.0 °F 85% 29.71 in 1.0 mi SSE 11.5 mph - 0.02 in Snow Light Snow
1:51 PM 21.2 °F 10.9 °F 17.6 °F 86% 29.70 in 0.8 mi SE 9.2 mph - 0.03 in Snow Light Snow
1:56 PM 21.9 °F 9.8 °F 18.0 °F 85% 29.75 in 1.5 mi SE 12.7 mph - 0.03 in Snow Light Snow
2:03 PM 21.9 °F 8.7 °F 17.1 °F 82% 29.70 in 3.0 mi SE 15.0 mph - 0.00 in Snow Light Snow
2:17 PM 23.0 °F 11.7 °F 17.1 °F 78% 29.69 in 7.0 mi SE 11.5 mph - 0.00 in Snow Light Snow
2:45 PM 24.1 °F 12.0 °F 17.1 °F 75% 29.69 in 10.0 mi SE 13.8 mph - 0.00 in   Overcast
2:56 PM 24.1 °F 12.0 °F 17.1 °F 75% 29.72 in 10.0 mi SSE 13.8 mph - 0.00 in   Overcast
3:07 PM 24.1 °F 13.1 °F 18.0 °F 77% 29.67 in 10.0 mi SE 11.5 mph - N/A   Overcast
3:56 PM 26.1 °F 17.6 °F 19.0 °F 75% 29.72 in 10.0 mi SE 8.1 mph - 0.00 in   Overcast
4:56 PM 28.0 °F 18.6 °F 17.1 °F 63% 29.70 in 10.0 mi SSE 10.4 mph - N/A   Clear
5:56 PM 30.0 °F 22.4 °F 17.1 °F 59% 29.71 in 10.0 mi SE 8.1 mph - N/A   Clear
6:56 PM 28.9 °F 21.1 °F 15.1 °F 56% 29.70 in 10.0 mi ESE 8.1 mph - N/A   Scattered Clouds
7:56 PM 28.9 °F 22.8 °F 16.0 °F 58% 29.71 in 10.0 mi East 5.8 mph - N/A   Mostly Cloudy
8:56 PM 27.0 °F 21.6 °F 16.0 °F 63% 29.73 in 10.0 mi NE 4.6 mph - N/A   Mostly Cloudy
10:56 PM 26.1 °F 18.4 °F 16.0 °F 66% 29.73 in 10.0 mi ENE 6.9 mph - N/A   Clear
11:56 PM 28.9 °F 22.8 °F 17.1 °F 61% 29.74 in 10.0 mi East 5.8 mph - N/A   Clear